SCP
0 1 1 1 1 1 1 1 1 2 2 2 1 1 1 1 0 0 0 0 0 0 0 0 0 0 0 0 0 0 0 0 0 0 0 0 0 0 0 0 0 0 0
0 1 1 1 1 1 1 1 1 2 2 2 1 1 1 1 0 0 0 0 0 0 0 0 0 0 0 0 0 0 0 0 0 0 0 0 0 0 0 0 0 0 0
0 1 1 1 1 1 1 1 1 2 2 2 1 1 1 1 1 0 0 0 0 0 0 0 0 0 0 0 0 0 0 0 0 0 0 0 0 0 0 0 0 0 0
0 1 1 1 1 1 1 1 1 1 2 2 2 1 1 1 1 0 0 0 0 0 0 0 0 0 0 0 0 0 0 0 0 0 0 0 0 0 0 0 0 0 0
0 0 1 1 1 1 1 1 1 1 1 2 2 1 1 1 1 1 0 0 0 0 0 0 0 0 0 0 0 0 0 0 0 0 0 0 0 0 0 0 0 0 0
0 0 1 1 1 1 1 1 1 1 1 1 1 1 1 1 1 1 0 0 0 0 0 0 0 0 0 0 0 0 0 0 0 0 0 0 0 0 0 0 0 0 0
0 1 1 1 1 1 1 1 1 1 1 1 1 1 1 1 1 1 1 0 0 0 0 0 0 0 0 0 0 0 0 0 0 0 0 0 0 0 0 0 0 0 0
0 1 1 1 1 1 1 1 1 1 1 1 1 1 1 1 1 1 1 0 0 0 0 0 0 0 0 0 0 0 0 0 -0 -0 0 0 0 0 0 0 0 0 0
0 0 1 1 1 1 1 1 1 1 1 1 1 1 1 1 1 1 1 1 0 0 0 0 0 0 0 0 0 0 0 0 -0 -0 0 0 0 0 0 0 0 0 0
0 0 1 1 1 1 1 1 1 1 1 1 1 1 1 1 1 1 1 1 0 0 0 0 0 0 0 0 0 0 0 0 -0 -0 0 0 0 0 0 0 0 0 0
0 0 0 1 1 0 0 0 0 1 1 1 1 1 1 1 1 1 0 0 0 0 0 0 0 0 0 0 0 0 0 0 -0 0 0 0 0 0 0 0 0 0 0
0 0 0 0 0 0 0 0 0 0 0 0 0 0 0 0 0 0 0 0 0 0 0 0 0 0 0 0 0 0 0 0 0 0 0 0 0 -0 -0 0 0 0 0
0 0 0 0 0 0 0 0 0 0 0 0 0 0 0 0 0 0 0 0 0 0 0 0 0 0 0 0 0 0 0 0 0 0 0 0 0 -0 -0 0 0 0 0
0 0 0 0 0 0 0 0 0 0 0 0 0 0 0 0 0 0 0 0 0 0 0 0 0 0 0 0 0 0 0 0 0 0 0 0 0 0 0 0 0 0 0
0 0 0 0 0 0 0 0 0 0 0 0 0 0 0 0 0 0 0 0 0 0 0 0 0 0 0 0 0 0 0 0 0 0 0 0 0 0 0 0 0 0 0
0 0 0 0 0 0 0 0 0 0 0 0 0 0 0 0 0 0 0 0 0 0 0 0 0 0 0 0 0 0 0 0 0 0 0 0 0 0 0 0 0 0 0
0 0 0 0 0 0 0 0 0 0 0 0 0 0 0 0 0 0 0 0 0 0 0 0 0 0 0 0 0 0 0 0 0 0 0 0 0 0 0 0 0 0 0
0 0 0 0 0 0 0 0 0 0 0 0 0 0 0 0 0 0 0 0 0 0 0 0 0 0 0 0 0 0 0 0 0 0 0 0 0 0 0 0 0 0 0
0 0 0 0 0 0 0 0 0 0 0 0 0 0 0 0 0 0 0 0 0 0 0 0 0 0 0 0 0 0 0 0 0 0 0 0 0 0 0 0 0 0 0
0 0 0 0 0 0 0 0 0 0 0 0 0 0 0 0 0 0 0 0 0 0 0 0 0 0 0 0 0 0 0 0 0 0 0 0 0 0 0 0 0 0 0
0 0 0 0 0 0 0 0 0 0 0 0 0 0 0 0 0 0 0 0 0 0 0 0 0 0 0 0 0 0 0 0 0 0 0 0 0 0 0 0 0 0 0
0 0 0 0 0 0 0 0 0 0 0 0 0 0 0 0 0 0 0 0 0 0 0 0 0 0 0 0 0 0 0 0 0 0 0 0 0 0 0 0 0 0 0
0 0 0 0 0 0 0 0 0 0 0 0 0 0 0 0 0 0 0 0 0 0 0 0 0 0 0 0 0 0 0 0 0 0 0 0 0 0 0 0 0 0 0
0 0 0 0 0 0 0 0 0 0 0 0 0 0 0 0 0 0 0 0 0 0 0 0 0 0 0 0 0 0 0 0 0 0 0 0 0 0 0 0 0 0 0
0 0 0 0 0 0 0 0 0 0 0 0 0 0 0 0 0 0 0 0 0 0 0 0 0 0 0 0 0 0 0 0 0 0 0 0 0 0 0 0 0 0 0
0 0 0 0 0 0 0 0 0 0 0 0 0 0 0 0 0 0 0 0 0 0 0 0 0 0 0 0 0 0 0 0 0 0 0 0 0 0 0 0 0 0 0
Wind_Speed
2 6 14 17 16 15 15 15 14 14 14 15 16 16 17 16 16 16 16 16 15 15 16 16 16 17 17 16 16 15 14 15 15 15 14 13 14 14 14 14 12 8 15
4 7 13 15 16 15 15 14 14 13 13 14 15 16 16 16 16 16 16 16 15 15 16 16 17 17 17 17 16 15 15 15 15 14 12 10 12 13 14 13 12 9 14
4 7 10 14 15 15 14 14 14 14 13 14 15 15 15 16 16 16 16 16 15 16 16 16 16 17 17 16 15 15 14 14 14 13 10 5 7 13 13 12 12 13 13
5 7 8 13 14 15 14 14 14 14 14 14 14 15 15 15 15 15 15 15 16 16 16 16 16 16 16 15 14 14 14 13 12 10 5 4 4 11 12 12 12 12 12
5 6 7 13 14 14 14 14 14 14 14 13 13 14 15 15 15 15 15 15 15 15 15 16 16 16 15 14 14 13 13 12 11 8 4 4 3 10 11 11 11 11 11
4 5 6 12 13 14 14 14 15 15 14 13 13 13 14 15 15 15 14 13 14 14 16 16 16 15 14 14 13 13 12 12 9 5 4 3 3 9 11 10 10 10 10
2 3 5 11 13 13 13 14 14 14 14 14 13 14 15 15 15 15 14 14 14 15 16 16 15 15 14 13 13 13 12 11 6 4 3 2 3 9 10 9 9 9 9
1 2 3 10 11 11 12 13 14 14 14 14 13 14 14 14 14 15 15 15 16 16 16 16 15 14 13 12 12 12 11 9 7 4 3 2 4 8 9 8 8 8 8
1 1 2 4 7 10 11 11 12 12 13 13 12 12 12 12 13 14 15 16 16 16 15 15 14 14 13 12 12 11 10 8 5 3 3 2 4 7 8 7 7 7 7
2 1 1 2 3 4 6 9 10 11 11 11 11 11 10 11 12 14 14 15 15 15 15 14 14 13 12 11 11 10 9 7 4 3 2 2 5 6 7 6 5 5 5
3 2 2 2 2 3 4 6 7 8 9 9 8 9 8 6 8 9 11 13 14 14 14 14 13 12 9 9 9 9 7 3 3 2 2 4 6 6 6 5 4 4 3
5 4 3 3 3 3 3 3 3 4 4 5 4 6 5 5 5 8 11 13 13 13 13 13 12 10 7 4 5 6 3 4 3 2 3 6 6 6 5 5 4 3 2
5 5 4 4 3 4 3 3 2 2 3 4 5 6 5 5 4 5 5 7 8 9 6 8 7 4 4 3 3 3 3 3 2 2 3 6 7 6 5 5 4 4 3
6 7 5 4 4 4 4 4 4 3 3 3 5 7 6 5 5 5 5 5 5 4 5 4 4 4 4 4 4 4 4 3 2 2 3 6 7 7 6 5 5 4 4
7 7 6 4 5 4 4 4 4 4 4 4 4 6 7 6 6 6 5 5 5 4 5 5 5 5 4 4 4 4 4 4 3 3 2 5 6 6 6 5 4 4 4
8 7 5 5 5 5 5 5 4 4 4 4 5 6 8 6 7 7 7 6 6 5 5 5 5 5 4 3 4 4 4 4 3 3 3 3 6 6 6 6 4 3 4
8 7 6 6 5 6 6 6 4 4 4 4 5 6 8 7 8 7 7 7 6 6 6 4 4 3 3 3 4 4 3 4 4 4 4 3 3 5 6 6 5 4 4
8 7 7 6 6 7 6 6 4 4 5 5 5 5 8 8 8 7 7 7 7 6 6 6 5 4 4 3 3 3 3 3 4 4 3 3 2 2 3 4 4 3 4
8 7 7 7 7 7 6 5 4 4 5 4 4 5 7 8 9 8 6 6 7 7 6 7 5 4 4 4 3 2 2 3 3 4 4 4 4 3 2 3 3 3 3
6 6 6 6 6 6 5 3 3 3 4 4 4 5 8 8 9 8 6 7 8 7 7 6 6 5 4 4 2 1 1 2 2 3 4 4 4 4 3 3 2 2 3
3 4 4 4 5 4 3 3 4 4 4 4 5 6 8 8 9 9 7 8 8 8 8 9 6 6 4 4 3 1 1 1 2 3 3 3 4 4 4 4 3 2 1
3 3 4 4 4 4 4 3 3 3 3 3 3 5 8 8 9 9 9 8 9 8 9 9 7 5 4 5 4 3 1 2 3 3 3 4 4 3 4 4 3 3 2
3 3 3 3 4 4 4 2 1 1 1 2 3 4 6 7 8 8 9 8 9 9 9 10 10 9 6 6 5 5 5 5 2 2 3 3 4 4 4 4 4 4 3
4 3 2 3 2 3 3 3 4 3 3 3 2 3 4 6 7 8 8 9 9 8 8 9 10 8 8 7 5 4 3 4 4 3 1 2 3 4 5 4 5 4 4
5 4 3 1 1 1 2 3 4 3 2 1 1 2 3 3 5 6 7 7 8 8 9 9 9 9 8 8 6 4 3 2 2 3 3 3 2 3 4 4 4 4 4
6 5 5 3 3 2 1 1 2 3 2 2 2 2 2 2 3 4 5 6 7 7 9 9 10 10 9 9 7 6 5 5 5 4 4 3 3 3 3 3 4 4 4
Wind_Direction
201 177 172 163 162 160 158 154 149 145 143 142 142 142 143 143 143 143 141 138 136 132 129 127 124 122 120 116 112 106 101 95 93 91 89 90 90 89 86 82 77 70 77
176 170 173 165 164 164 162 158 153 150 148 148 147 147 147 147 146 146 145 143 140 136 133 129 126 123 120 117 113 108 104 100 97 93 86 85 89 91 89 86 83 81 80
157 167 170 166 166 166 165 162 159 156 155 154 153 152 152 151 150 150 149 147 144 141 136 133 129 125 122 119 116 114 110 107 103 96 89 78 90 94 90 87 83 81 81
164 165 170 169 169 169 168 167 165 164 162 160 160 158 157 156 154 154 153 151 147 144 140 135 131 129 126 124 122 120 117 113 107 98 82 73 85 97 94 91 86 83 80
168 167 172 171 172 172 172 172 171 170 170 168 166 164 163 162 159 158 156 152 148 144 141 137 135 133 131 129 127 125 123 118 108 96 87 79 78 99 96 92 89 86 84
171 170 178 176 176 176 176 176 177 176 177 176 174 171 170 169 166 162 158 152 147 145 143 141 140 139 137 134 132 130 128 122 109 100 95 91 90 106 103 98 94 90 87
178 178 186 183 182 181 181 181 181 182 182 181 180 178 177 176 172 166 160 154 152 150 148 147 147 146 142 139 137 135 132 129 120 113 107 103 117 114 110 104 98 94 91
200 197 196 194 189 187 188 188 187 187 188 186 185 183 182 181 175 170 164 159 158 156 155 153 153 151 147 142 140 140 138 136 130 129 126 132 138 122 116 110 104 100 96
333 222 211 201 198 195 195 193 191 192 193 190 189 190 187 181 175 172 167 165 163 162 160 159 158 156 151 145 142 143 144 138 134 143 149 160 152 134 126 121 114 108 102
341 301 241 217 204 200 199 198 196 196 196 192 192 192 186 182 176 172 169 169 167 166 164 164 164 162 155 148 146 145 142 132 142 152 159 187 175 150 138 134 129 122 117
319 305 272 233 214 204 199 204 198 197 197 195 192 188 181 178 173 170 169 170 169 168 168 168 168 164 153 148 147 143 136 138 153 166 182 200 185 170 156 152 148 142 138
303 296 279 245 222 206 204 195 194 194 193 192 182 178 173 166 168 165 170 170 170 170 170 172 170 163 143 139 144 135 135 151 161 179 200 203 193 186 174 168 170 171 167
278 279 277 255 227 203 193 186 191 190 186 185 181 176 166 159 159 159 163 168 169 167 167 172 168 154 147 148 146 145 155 160 176 194 209 211 206 202 193 186 189 194 196
273 268 265 255 233 215 199 193 188 190 192 194 186 177 169 168 167 165 169 165 166 166 165 166 162 157 158 163 162 162 168 174 188 197 219 218 213 211 204 198 201 205 204
260 260 257 250 232 219 207 203 195 193 195 197 191 186 178 176 176 173 172 170 169 166 170 171 169 168 169 173 176 176 182 190 198 202 222 220 216 213 211 210 210 212 208
250 249 248 245 233 220 212 211 204 197 197 190 190 193 188 182 178 177 177 177 176 174 174 176 176 175 178 177 188 190 192 192 199 202 207 215 213 211 213 214 212 213 213
248 242 235 237 230 225 218 214 209 198 197 198 196 193 193 190 185 181 183 183 181 172 168 168 170 164 178 187 198 198 196 199 199 202 198 196 203 212 213 213 214 215 218
248 241 234 235 224 222 222 215 208 201 200 201 200 194 196 194 188 183 187 188 178 173 174 176 177 179 188 192 197 203 198 198 203 202 194 190 187 190 202 204 204 208 210
245 240 235 228 223 220 220 219 212 207 208 204 200 197 196 196 190 187 189 186 176 178 182 185 181 178 185 191 196 200 201 203 203 196 195 194 188 182 179 183 185 189 192
250 241 234 228 220 215 212 206 204 211 215 207 204 203 197 196 193 190 188 186 180 182 186 188 182 179 176 171 170 182 213 217 200 200 199 191 187 184 177 171 171 180 178
260 246 234 230 226 207 200 196 198 208 211 210 206 205 202 198 195 193 194 186 185 190 191 187 179 179 178 149 133 160 305 235 210 208 197 190 189 184 174 175 173 169 170
267 253 242 235 227 213 209 198 193 188 202 210 210 207 203 200 198 198 194 192 190 191 189 187 179 177 178 172 156 146 205 264 240 211 196 197 193 176 180 183 175 173 165
299 271 257 243 229 217 205 186 179 164 165 198 205 212 208 202 198 199 197 195 192 193 196 193 189 186 185 190 183 169 174 206 213 220 207 200 188 180 183 176 180 179 176
316 305 276 250 235 220 194 188 185 189 202 213 203 220 215 206 201 197 200 201 199 200 200 198 197 195 184 190 202 211 196 163 170 195 221 202 192 190 189 185 182 182 178
347 341 338 325 308 250 200 199 200 208 218 208 188 204 219 220 211 203 198 201 204 205 205 200 198 199 196 196 190 184 187 189 186 174 196 197 202 209 198 188 181 181 180
4 5 9 12 8 14 30 202 196 207 209 197 206 214 221 221 219 215 208 203 207 209 207 204 201 201 203 204 201 194 185 182 188 183 189 190 201 201 193 186 186 187 184